Auburn, IN

5:30 AM EDT on April 25, 2017 (GMT -0400)
Auburn

Weather History for KGWB - February, 2014

Change the Weather History Date:

Thursday, February 13, 2014

  Actual Average (KFWA) Record (KFWA)
Temperature  
Mean Temperature 16 °F -  
Max Temperature 32 °F 33 °F 65 °F (1990)
Min Temperature 0 °F 17 °F -14 °F (1899)
Degree Days  
Heating Degree Days 49    
Moisture  
Dew Point 7 °F    
Average Humidity 65    
Maximum Humidity 85    
Minimum Humidity 38    
Precipitation  
Precipitation 0.00 in - - ()
Sea Level Pressure  
Sea Level Pressure 29.81 in    
Wind  
Wind Speed 3 mph (ESE)    
Max Wind Speed 7 mph    
Max Gust Speed -    
Visibility 8 miles    
Events      
Averages and records for this station are not official NWS values.
T = Trace of Precipitation, MM = Missing Value Source: NWS Daily Summary

Daily Weather History Graph

Daily Weather History Graph

Search for Another Location

Airport or City:

Trip Planner

Search our weather history database for the weather conditions in past years. The results will help you decide how hot, cold, wet, or windy it might be!

Date:

Astronomy

Feb. 13, 2014 Rise Set
Actual Time 7:37 AM EST 6:11 PM EST
Civil Twilight 7:09 AM EST 6:40 PM EST
Nautical Twilight 6:36 AM EST 7:12 PM EST
Astronomical Twilight 6:04 AM EST 7:44 PM EST
Moon 5:19 PM EST (2/13) 6:30 AM EST (2/13)
Length of Visible Light 11h 31m
Length of Day
10h 34m
Waxing Gibbous, 98% of the Moon is Illuminated
Feb 13
Waxing Gibbous
Feb 14
Full
Feb 22
Last Quarter
Mar 1
New
Mar 8
First Quarter

Hourly Weather History & Observations

Time (EST) Temp. Windchill Dew Point Humidity Pressure Visibility Wind Dir Wind Speed Gust Speed Precip Events Conditions
12:15 AM 8.6 °F 0.1 °F 1.4 °F 73% 30.04 in 10.0 mi East 4.6 mph - N/A   Clear
12:35 AM 12.2 °F 4.3 °F 3.2 °F 67% 30.04 in 10.0 mi East 4.6 mph - N/A   Clear
12:55 AM 6.8 °F -0.1 °F 1.4 °F 79% 30.03 in 7.0 mi East 3.5 mph - N/A   Clear
1:15 AM 6.8 °F -2.0 °F 1.4 °F 79% 30.03 in 7.0 mi East 4.6 mph - N/A   Clear
1:35 AM 5.0 °F -2.1 °F -0.4 °F 78% 30.02 in 7.0 mi East 3.5 mph - N/A   Clear
1:55 AM 5.0 °F -2.1 °F 1.4 °F 85% 30.02 in 7.0 mi East 3.5 mph - N/A   Clear
2:15 AM 5.0 °F - -0.4 °F 78% 30.02 in 7.0 mi Calm Calm - N/A   Clear
2:35 AM 5.0 °F -2.1 °F 1.4 °F 85% 30.01 in 7.0 mi North 3.5 mph - N/A   Clear
2:55 AM 3.2 °F - -0.4 °F 85% 30.00 in 7.0 mi Calm Calm - N/A   Clear
3:15 AM 3.2 °F -6.2 °F -0.4 °F 85% 30.00 in 7.0 mi NNW 4.6 mph - N/A   Scattered Clouds
3:35 AM 5.0 °F - 1.4 °F 85% 29.99 in 7.0 mi Calm Calm - N/A   Mostly Cloudy
3:55 AM 8.6 °F - 3.2 °F 79% 29.99 in 7.0 mi Calm Calm - N/A   Overcast
4:15 AM 8.6 °F - 3.2 °F 79% 29.98 in 7.0 mi Calm Calm - N/A   Mostly Cloudy
4:35 AM 8.6 °F - 3.2 °F 79% 29.98 in 7.0 mi Calm Calm - N/A   Scattered Clouds
4:55 AM 6.8 °F -0.1 °F 1.4 °F 79% 29.97 in 7.0 mi East 3.5 mph - N/A   Clear
5:15 AM 3.2 °F - -0.4 °F 85% 29.98 in 7.0 mi Calm Calm - N/A   Clear
5:35 AM 3.2 °F - -0.4 °F 85% 29.98 in 7.0 mi Calm Calm - N/A   Clear
5:55 AM 3.2 °F - -0.4 °F 85% 29.98 in 7.0 mi Calm Calm - N/A   Clear
6:15 AM -0.4 °F -10.4 °F -5.8 °F 78% 29.97 in 5.0 mi East 4.6 mph - N/A   Haze
6:35 AM 3.2 °F -7.8 °F -0.4 °F 85% 29.96 in 7.0 mi East 5.8 mph - N/A   Clear
6:55 AM 8.6 °F 0.1 °F 3.2 °F 79% 29.95 in 7.0 mi East 4.6 mph - N/A   Clear
7:15 AM 5.0 °F - -0.4 °F 78% 29.95 in 7.0 mi Calm Calm - N/A   Clear
7:35 AM 3.2 °F - -0.4 °F 85% 29.94 in 7.0 mi Calm Calm - N/A   Clear
7:55 AM 3.2 °F - -2.2 °F 78% 29.94 in 4.0 mi Calm Calm - N/A   Haze
8:15 AM 3.2 °F - -0.4 °F 85% 29.93 in 5.0 mi Calm Calm - N/A   Clear
8:35 AM 3.2 °F - -2.2 °F 78% 29.94 in 5.0 mi Calm Calm - N/A   Haze
8:55 AM 5.0 °F -2.1 °F -0.4 °F 78% 29.92 in 7.0 mi East 3.5 mph - N/A   Clear
9:15 AM 8.6 °F 2.0 °F 5.0 °F 85% 29.92 in 7.0 mi East 3.5 mph - N/A   Clear
9:35 AM 14.0 °F 6.5 °F 5.0 °F 67% 29.91 in 10.0 mi East 4.6 mph - N/A   Clear
9:55 AM 15.8 °F 8.6 °F 5.0 °F 62% 29.91 in 10.0 mi ESE 4.6 mph - N/A   Clear
10:15 AM 17.6 °F 10.7 °F 5.0 °F 58% 29.90 in 10.0 mi ESE 4.6 mph - N/A   Clear
10:35 AM 19.4 °F 11.5 °F 6.8 °F 58% 29.89 in 10.0 mi ESE 5.8 mph - N/A   Clear
10:55 AM 21.2 °F 14.9 °F 6.8 °F 54% 29.88 in 10.0 mi ESE 4.6 mph - N/A   Clear
11:15 AM 21.2 °F 12.6 °F 8.6 °F 58% 29.87 in 10.0 mi East 6.9 mph - N/A   Clear
11:35 AM 23.0 °F 17.0 °F 8.6 °F 54% 29.87 in 10.0 mi East 4.6 mph - N/A   Clear
11:55 AM 24.8 °F 17.9 °F 8.6 °F 50% 29.85 in 10.0 mi East 5.8 mph - N/A   Clear
12:15 PM 24.8 °F - 8.6 °F 50% 29.87 in 10.0 mi Calm Calm - N/A   Clear
12:35 PM 26.6 °F 20.0 °F 8.6 °F 47% 29.83 in 10.0 mi East 5.8 mph - N/A   Clear
12:55 PM 28.4 °F - 10.4 °F 47% 29.82 in 10.0 mi Calm Calm - N/A   Clear
1:15 PM 28.4 °F - 8.6 °F 43% 29.79 in 10.0 mi Calm Calm - N/A   Clear
1:35 PM 30.2 °F 26.7 °F 8.6 °F 40% 29.78 in 10.0 mi SE 3.5 mph - N/A   Clear
1:55 PM 30.2 °F 26.7 °F 8.6 °F 40% 29.77 in 10.0 mi South 3.5 mph - N/A   Clear
2:35 PM 30.2 °F 26.7 °F 8.6 °F 40% 29.75 in 10.0 mi SSE 3.5 mph - N/A   Clear
2:55 PM 30.2 °F 26.7 °F 8.6 °F 40% 29.75 in 10.0 mi South 3.5 mph - N/A   Clear
3:15 PM 32.0 °F - 8.6 °F 38% 29.74 in 10.0 mi Calm Calm - N/A   Clear
3:35 PM 32.0 °F 28.7 °F 8.6 °F 38% 29.71 in 10.0 mi SE 3.5 mph - N/A   Clear
3:55 PM 30.2 °F 26.7 °F 10.4 °F 44% 29.70 in 10.0 mi ESE 3.5 mph - N/A   Scattered Clouds
4:15 PM 30.2 °F - 12.2 °F 47% 29.69 in 10.0 mi Calm Calm - N/A   Mostly Cloudy
4:35 PM 30.2 °F 25.4 °F 10.4 °F 44% 29.68 in 10.0 mi SSE 4.6 mph - N/A   Overcast
4:55 PM 28.4 °F - 10.4 °F 47% 29.68 in 10.0 mi Calm Calm - N/A   Overcast
5:15 PM 28.4 °F 23.3 °F 12.2 °F 51% 29.67 in 10.0 mi ESE 4.6 mph - N/A   Overcast
5:35 PM 26.6 °F 19.1 °F 12.2 °F 55% 29.64 in 10.0 mi ESE 6.9 mph - N/A   Overcast
5:55 PM 26.6 °F 21.2 °F 12.2 °F 55% 29.63 in 10.0 mi ESE 4.6 mph - N/A   Mostly Cloudy
6:15 PM 26.6 °F 22.6 °F 12.2 °F 55% 29.63 in 10.0 mi SE 3.5 mph - N/A   Overcast
6:35 PM 24.8 °F - 12.2 °F 59% 29.63 in 10.0 mi Calm Calm - N/A   Overcast
6:55 PM 23.0 °F - 12.2 °F 63% 29.63 in 10.0 mi Calm Calm - N/A   Mostly Cloudy
7:15 PM 23.0 °F - 12.2 °F 63% 29.63 in 10.0 mi Calm Calm - N/A   Mostly Cloudy
7:35 PM 23.0 °F - 12.2 °F 63% 29.63 in 10.0 mi Calm Calm - N/A   Overcast
7:55 PM 23.0 °F - 12.2 °F 63% 29.62 in 10.0 mi Calm Calm - N/A   Overcast
8:15 PM 23.0 °F - 12.2 °F 63% 29.61 in 10.0 mi Calm Calm - N/A   Overcast
8:35 PM 23.0 °F - 12.2 °F 63% 29.60 in 7.0 mi Calm Calm - N/A   Mostly Cloudy
8:55 PM 21.2 °F - 12.2 °F 68% 29.59 in 7.0 mi Calm Calm - N/A   Scattered Clouds
9:15 PM 21.2 °F - 12.2 °F 68% 29.58 in 7.0 mi Calm Calm - N/A   Scattered Clouds
9:35 PM 23.0 °F 18.4 °F 14.0 °F 68% 29.58 in 7.0 mi SSE 3.5 mph - N/A   Overcast
9:55 PM 23.0 °F 18.4 °F 14.0 °F 68% 29.56 in 7.0 mi SSE 3.5 mph - N/A   Overcast
10:15 PM 23.0 °F - 14.0 °F 68% 29.55 in 7.0 mi Calm Calm - N/A   Overcast
10:35 PM 24.8 °F 19.1 °F 14.0 °F 64% 29.54 in 10.0 mi South 4.6 mph - N/A   Overcast
10:55 PM 26.6 °F 21.2 °F 15.8 °F 64% 29.53 in 10.0 mi SSW 4.6 mph - N/A   Overcast
11:15 PM 28.4 °F 22.2 °F 15.8 °F 59% 29.51 in 10.0 mi SSW 5.8 mph - N/A   Overcast
11:35 PM 30.2 °F 24.3 °F 17.6 °F 60% 29.51 in 10.0 mi SW 5.8 mph - N/A   Overcast
11:55 PM 30.2 °F 23.4 °F 19.4 °F 64% 29.50 in 10.0 mi SSW 6.9 mph - N/A   Overcast